Regional Weather Roundup
Issued by NWS

Home | Current Version | Previous Version | Graphics & Text | Print | Product List | Glossary On
Versions: 1 2 3 4 5 6 7 8 9 10 11 12 13 14 15 16 17 18 19 20 21 22 23 24 25 26 27 28 29 30 31 32 33 34 35 36 37 38 39 40 41 42 43 44 45 46 47 48 49 50
000
ASUS43 KBIS 172359
RWRND

NORTH DAKOTA REGIONAL WEATHER ROUNDUP
NATIONAL WEATHER SERVICE BISMARCK ND
700 PM CDT THU APR 17 2014

NOTE: "FAIR" INDICATES FEW OR NO CLOUDS BELOW 12,000 FEET WITH NO
SIGNIFICANT WEATHER AND/OR OBSTRUCTIONS TO VISIBILITY.


NDZ001>003-009>011-017-180100-
NORTHWEST NORTH DAKOTA

CITY           SKY/WX    TMP DP  RH WIND       PRES   REMARKS
WILLISTON      MOSUNNY   44  28  53 S15       30.04S
6HR MIN TEMP:  38; 6HR MAX TEMP:  47;

MINOT          CLOUDY    41  18  39 E14       30.13F
$$

NDZ018>021-031>035-040>046-180100-
SOUTHWEST NORTH DAKOTA

CITY           SKY/WX    TMP DP  RH WIND       PRES   REMARKS
BISMARCK       CLOUDY    45  20  36 S16       30.15F
6HR MIN TEMP:  40; 6HR MAX TEMP:  48;

GARRISON         N/A     42  23  46 SE12      30.11F
6HR MIN TEMP:  36; 6HR MAX TEMP:  44;

HETTINGER ARPT PTSUNNY   46  28  49 SE15G23   30.03F
$$

NDZ004>008-012>016-024-026-027-054-180100-
NORTHEAST NORTH DAKOTA

CITY           SKY/WX    TMP DP  RH WIND       PRES   REMARKS
GRAND FORKS    PTSUNNY   39  13  34 E6        30.29F
DEVILS LAKE    CLOUDY    39  12  33 SE10      30.23F
$$

NDZ022-023-025-028>030-036>039-047>053-180100-
SOUTHEAST NORTH DAKOTA

CITY           SKY/WX    TMP DP  RH WIND       PRES   REMARKS
FARGO          SUNNY     44  13  28 NW7       30.27S
6HR MIN TEMP:  40; 6HR MAX TEMP:  45;

$$




USA.gov is the U.S. government's official web portal to all federal, state and local government web resources and services.